Hourly Data Report for January 02, 2022

OTTAWA INTL A
ONTARIO
Current Station Operator: NAVCAN

45°19'00.000" N
75°40'00.000" W
114.90 m
6106001
71628
YOW

Download Data

Hourly Data (January 2022)
Hourly Data Report for January 2, 2022
TIME
LST
Temp Definition
°C
Dew Point Definition
°C
Rel Hum Definition
%
Precip. Amount Definition
mm

Wind Dir Definition
10's deg

Wind Spd Definition
km/h
Visibility Definition
km
Stn Press Definition
kPa
Hmdx Definition


Wind Chill Definition


Weather Definition


00:00 -7.0 -10.4 77   32 21 24.1 99.61   -14 LegendNANA
01:00 -8.3 -11.9 75   32 29 24.1 99.64   -17 Cloudy
02:00 -8.8 -12.5 75   32 23 24.1 99.63   -17 Snow
03:00 -9.1 -13.0 74   32 23 24.1 99.65   -17 Snow
04:00 -9.8 -13.6 74   33 23 24.1 99.58   -18 Cloudy
05:00 -10.3 -14.3 73   33 19 24.1 99.56   -18 LegendNANA
06:00 -10.6 -14.7 72   32 25 24.1 99.57   -20 LegendNANA
07:00 -11.1 -15.2 72   32 26 24.1 99.62   -20 Snow
08:00 -11.6 -15.8 72   32 24 24.1 99.72   -21 LegendNANA
09:00 -11.9 -15.4 76   34 22 24.1 99.73   -21 Snow
10:00 -11.9 -16.6 68   33 24 24.1 99.77   -21 Cloudy
11:00 -11.6 -16.8 66   31 24 24.1 99.84   -21 LegendNANA
12:00 -11.1 -17.1 62   31 24 24.1 99.80   -20 LegendNANA
13:00 -10.6 -17.4 58   33 28 24.1 99.80   -20 Cloudy
14:00 -10.5 -17.7 56   32 24 24.1 99.88   -19 LegendNANA
15:00 -10.5 -18.4 53   33 25 24.1 99.97   -19 LegendNANA
16:00 -10.6 -18.6 52   32 27 24.1 100.08   -20 Cloudy
17:00 -11.0 -18.9 52   33 24 24.1 100.21   -20 LegendNANA
18:00 -11.3 -19.3 52   33 17 24.1 100.36   -19 LegendNANA
19:00 -11.7 -19.1 54   33 23 24.1 100.48   -21 Mostly Cloudy
20:00 -12.7 -19.6 57   34 20 24.1 100.59   -21 LegendNANA
21:00 -13.7 -20.1 59   32 22 24.1 100.66   -23 LegendNANA
22:00 -15.0 -20.4 64   31 16 24.1 100.75   -23 Clear
23:00 -15.4 -20.8 64   32 18 24.1 100.83   -24 LegendNANA

Notes on Data Quality.

Legend

  • E = Estimated
  • M = Missing
  • NA = Not Available*
  • [empty] = Indicates an unobserved value
Date modified: